Location: *
(49.0044°N, 9.5056°E)
Time: 20:59:22
(UTC+00:00)

Cosmos 1741 Rocket - Pass Details

Date: 22 September 2019
Orbit: 761 x 783 km, 74.0° (Epoch: 13 October)

Event Time Altitude Azimuth Distance (km) Brightness Sun altitude
Rises 19:21:57 0° 337° (NNW) 3,284 8.0 -20.1°
Reaches altitude 10° 19:24:22 10° 340° (NNW) 2,351 7.1 -20.4°
Maximum altitude 19:29:43 70° 65° (ENE) 835 4.0 -21.2°
Enters shadow 19:31:10 47° 131° (SE) 1,029 4.2 -21.4°
